Flag for Spain Weather past 2 weeks in A Coruña, Spain

Now
67 °F

Mild.


Feels Like: 67 °F
Forecast: 65 / 76 °F
Wind: 5 mph from Northwest

Location: La Coruna

Current Time: Aug 1, 2015 at 8:26:25 PM

Latest Report: Aug 1, 2015 at 7:00 PM


Visibility: 13 mi

Pressure: 29.96 "Hg

Humidity: 75%

Dew point: 59 °F

Location of A CoruñaLocation

Historic Weather in A Coruña — Graph

°F

A Coruña temperature yesterday

Maximum temperature yesterday: 66 °F (at 5:00 PM)
Minimum temperature yesterday: 61 °F (at 12:00 PM)
Average temperature yesterday: 63 °F

Past Weeks' High & Low Weather Summary

 TemperatureHumidityPressure
High79 °F (Jul 19, 4:00 PM)99% (Jul 29, 8:00 AM)30.22 "Hg (Jul 29, 8:00 AM)
Low58 °F (Aug 1, 8:00 AM)51% (Jul 27, 1:00 PM)29.88 "Hg (Jul 24, 7:00 AM)
Average68 °F79%30.05 "Hg
* Reported Jul 17 7:00 PM — Aug 1 7:00 PM, A Coruña, Weather by CustomWeather, © 2015

Note: Actual official high and low records may vary slightly from our data, if they occured in-between our weather recording intervals... More about our weather records

Advertising

A Coruña weather history for previous 24 hours

 ConditionsComfort  
Time TempWeatherWind HumidityBarometerVisibility
7:00 PM
Sat, Aug 1
67 °FMild.5 mph75%29.96 "Hg12 mi
6:00 PM69 °FMild.7 mph72%29.98 "Hg12 mi
5:00 PM70 °FMild.10 mph70%29.99 "Hg12 mi
4:00 PM69 °FMild.13 mph72%30.01 "Hg12 mi
3:00 PM69 °FMild.9 mph70%30.01 "Hg12 mi
2:00 PM70 °FScattered clouds.10 mph68%30.02 "Hg16 mi
1:00 PM70 °FMild.8 mph66%30.03 "Hg12 mi
12:00 PM70 °FMild.5 mph64%30.04 "Hg12 mi
11:00 AM68 °FPassing clouds.5 mph69%30.05 "Hg16 mi
10:00 AM66 °FMild.3 mph77%30.05 "Hg12 mi
9:00 AM60 °FCool.3 mph89%30.06 "Hg10 mi
8:00 AM58 °FScattered clouds.3 mph94%30.06 "Hg14 mi
7:00 AM59 °FCool.2 mph92%30.04 "HgN/A
5:00 AM60 °FClear.5 mph90%30.04 "Hg9 mi
4:00 AM60 °FCool.6 mph91%30.04 "Hg4 mi
3:00 AM61 °FCool.5 mph89%30.04 "Hg4 mi
2:00 AM61 °FCool.5 mph86%30.05 "Hg5 mi
1:00 AM61 °FCool.6 mph87%30.05 "Hg4 mi
12:00 AM62 °FCool.6 mph82%30.04 "Hg6 mi
11:00 PM
Fri, Jul 31
63 °FPassing clouds.8 mph80%30.03 "Hg11 mi
10:00 PM63 °FMild.10 mph79%30.01 "Hg6 mi
9:00 PM64 °FMild.10 mph78%29.99 "Hg12 mi
8:00 PM64 °FMild.10 mph81%29.98 "Hg12 mi
Weather by CustomWeather, © 2015

See weather overviewHow to use our weather pages